Location: Home
(42.5358°N, 72.7383°W)
Time: 12:21:42
(UTC-05:00)

A-11 Canister half - Pass Details

Date: 29 November 2021
Orbit: 1516 x 1684 km, 47.2° (Epoch: 26 January)

Event Time Altitude Azimuth Distance (km) Brightness Sun altitude
Rises 07:58:51 0° 231° (SW) 4,769 11.5 8.2°
Reaches altitude 10° 08:01:54 10° 229° (SW) 3,808 11.0 8.7°
Maximum altitude 08:11:35 72° 147° (SSE) 1,712 9.8 10.0°
Drops below altitude 10° 08:21:37 10° 66° (ENE) 3,935 11.5 11.4°
Sets 08:24:49 0° 65° (ENE) 4,934 11.9 11.8°
